McCook, NE

7:17 PM CST on November 24, 2017 (GMT -0600)
McCook Municipal

Weather History for KMCK - March, 2013

Change the Weather History Date:

Thursday, March 28, 2013

  Actual Average Record
Temperature  
Mean Temperature 46 °F 43 °F  
Max Temperature 67 °F 58 °F 88 °F (1963)
Min Temperature 25 °F 28 °F 5 °F (1931)
Degree Days  
Heating Degree Days 20    
Moisture  
Dew Point 29 °F    
Average Humidity 56    
Maximum Humidity 89    
Minimum Humidity 27    
Precipitation  
Precipitation 0.00 in 0.05 in 1.25 in (1980)
Month to date precipitation 0.26 1.20  
Year to date precipitation 1.43 2.33  
Sea Level Pressure  
Sea Level Pressure 30.14 in    
Wind  
Wind Speed 5 mph (SSE)    
Max Wind Speed 18 mph    
Max Gust Speed 24 mph    
Visibility 9 miles    
Events      
T = Trace of Precipitation, MM = Missing Value Source: NWS Daily Summary

Daily Weather History Graph

Daily Weather History Graph

Search for Another Location

Airport or City:

Trip Planner

Search our weather history database for the weather conditions in past years. The results will help you decide how hot, cold, wet, or windy it might be!

Date:

Astronomy

Mar. 28, 2013 Rise Set
Actual Time 7:32 AM CDT 8:02 PM CDT
Civil Twilight 7:04 AM CDT 8:30 PM CDT
Nautical Twilight 6:32 AM CDT 9:02 PM CDT
Astronomical Twilight 5:59 AM CDT 9:35 PM CDT
Moon 9:57 PM CDT (3/28) 8:01 AM CDT (3/28)
Length of Visible Light 13h 25m
Length of Day
12h 30m
Full, 98% of the Moon is Illuminated
Mar 28
Full
Apr 2
Last Quarter
Apr 10
New
Apr 18
First Quarter
Apr 25
Full

Hourly Weather History & Observations

Time (CDT) Temp. Windchill Dew Point Humidity Pressure Visibility Wind Dir Wind Speed Gust Speed Precip Events Conditions
12:53 AM 39.0 °F - 28.0 °F 65% 30.19 in 10.0 mi Calm Calm - N/A   Clear
1:53 AM 35.1 °F - 27.0 °F 72% 30.19 in 10.0 mi Calm Calm - N/A   Clear
2:53 AM 33.1 °F 28.7 °F 27.0 °F 78% 30.20 in 9.0 mi SW 4.6 mph - N/A   Clear
3:53 AM 28.9 °F 25.2 °F 24.1 °F 82% 30.19 in 8.0 mi East 3.5 mph - N/A   Clear
4:53 AM 32.0 °F - 27.0 °F 82% 30.18 in 8.0 mi Calm Calm - N/A   Scattered Clouds
5:53 AM 28.9 °F - 25.0 °F 85% 30.16 in 7.0 mi Calm Calm - N/A   Clear
6:53 AM 25.0 °F 18.1 °F 21.9 °F 88% 30.15 in 5.0 mi ENE 5.8 mph - N/A   Clear
7:53 AM 27.0 °F 23.0 °F 24.1 °F 89% 30.19 in 5.0 mi WNW 3.5 mph - N/A   Clear
8:53 AM 32.0 °F 28.7 °F 28.0 °F 85% 30.19 in 5.0 mi SE 3.5 mph - N/A   Clear
9:53 AM 39.9 °F - 30.9 °F 70% 30.20 in 7.0 mi Calm Calm - N/A   Clear
10:53 AM 46.0 °F 44.8 °F 32.0 °F 58% 30.19 in 9.0 mi SE 3.5 mph - N/A   Clear
11:53 AM 54.0 °F - 28.9 °F 38% 30.17 in 10.0 mi SSE 12.7 mph 16.1 mph N/A   Unknown
12:53 PM 59.0 °F - 30.0 °F 33% 30.14 in 10.0 mi South 18.4 mph 24.2 mph N/A   Partly Cloudy
1:53 PM 61.0 °F - 30.0 °F 31% 30.12 in 10.0 mi South 16.1 mph 23.0 mph N/A   Clear
2:53 PM 64.0 °F - 28.9 °F 27% 30.11 in 10.0 mi SSE 12.7 mph 20.7 mph N/A   Clear
3:53 PM 66.0 °F - 30.9 °F 27% 30.08 in 10.0 mi South 13.8 mph - N/A   Clear
4:53 PM 66.0 °F - 30.9 °F 27% 30.06 in 10.0 mi South 10.4 mph - N/A   Clear
5:53 PM 66.0 °F - 30.9 °F 27% 30.05 in 10.0 mi South 12.7 mph - N/A   Clear
6:53 PM 64.9 °F - 30.9 °F 28% 30.07 in 10.0 mi South 9.2 mph - N/A   Clear
7:53 PM 57.9 °F - 32.0 °F 37% 30.09 in 10.0 mi South 6.9 mph - N/A   Clear
8:53 PM 54.0 °F - 32.0 °F 43% 30.11 in 10.0 mi South 4.6 mph - N/A   Clear
9:53 PM 50.0 °F - 32.0 °F 50% 30.13 in 10.0 mi SE 10.4 mph - N/A   Clear
10:53 PM 48.0 °F - 32.0 °F 54% 30.14 in 10.0 mi SE 9.2 mph - N/A   Clear
11:53 PM 46.0 °F 41.4 °F 30.9 °F 56% 30.14 in 10.0 mi SE 9.2 mph - N/A   Clear